TimeMST,TemperatureF,Dew PointF,Humidity,Sea Level PressureIn,VisibilityMPH,Wind Direction,Wind SpeedMPH,Gust SpeedMPH,PrecipitationIn,Events,Conditions,WindDirDegrees,DateUTC
12:53 AM,16.0,12.9,88,30.09,10.0,Calm,Calm,-,N/A,,Overcast,0,2013-01-22 07:53:00
1:53 AM,15.1,10.9,84,30.11,10.0,West,3.5,-,N/A,,Clear,270,2013-01-22 08:53:00
2:53 AM,10.0,7.0,87,30.11,10.0,Calm,Calm,-,N/A,,Clear,0,2013-01-22 09:53:00
3:53 AM,7.0,3.9,87,30.12,10.0,West,5.8,-,N/A,,Clear,260,2013-01-22 10:53:00
4:53 AM,10.0,3.9,76,30.13,10.0,WNW,5.8,-,N/A,,Clear,290,2013-01-22 11:53:00
5:53 AM,10.0,5.0,80,30.14,10.0,WSW,9.2,-,N/A,,Clear,250,2013-01-22 12:53:00
6:53 AM,10.0,5.0,80,30.16,10.0,West,6.9,-,N/A,,Clear,270,2013-01-22 13:53:00
7:53 AM,15.1,10.0,80,30.17,10.0,WNW,5.8,-,N/A,,Clear,290,2013-01-22 14:53:00
8:53 AM,28.0,18.0,66,30.14,10.0,West,10.4,-,N/A,,Clear,270,2013-01-22 15:53:00
9:53 AM,39.9,17.1,40,30.13,10.0,West,16.1,-,N/A,,Clear,280,2013-01-22 16:53:00
10:53 AM,48.9,12.0,23,30.11,10.0,WNW,16.1,-,N/A,,Clear,290,2013-01-22 17:53:00
11:53 AM,53.1,8.1,16,30.08,10.0,West,17.3,-,N/A,,Clear,280,2013-01-22 18:53:00
12:53 PM,54.0,6.1,15,30.08,10.0,WNW,16.1,-,N/A,,Clear,290,2013-01-22 19:53:00
1:53 PM,54.0,6.1,15,30.08,10.0,NW,12.7,-,N/A,,Clear,310,2013-01-22 20:53:00
2:53 PM,54.0,5.0,14,30.08,10.0,NW,11.5,-,N/A,,Clear,310,2013-01-22 21:53:00
3:53 PM,48.9,5.0,17,30.13,10.0,NNW,10.4,-,N/A,,Clear,330,2013-01-22 22:53:00
4:53 PM,41.0,7.0,25,30.16,10.0,NNW,6.9,-,N/A,,Clear,330,2013-01-22 23:53:00
5:53 PM,27.0,7.0,43,30.20,10.0,WSW,6.9,-,N/A,,Clear,250,2013-01-23 00:53:00
6:53 PM,21.0,6.1,53,30.24,10.0,West,6.9,-,N/A,,Clear,270,2013-01-23 01:53:00
7:53 PM,18.0,7.0,62,30.22,10.0,West,8.1,-,N/A,,Clear,260,2013-01-23 02:53:00
8:53 PM,19.0,8.1,62,30.20,10.0,West,8.1,-,N/A,,Clear,280,2013-01-23 03:53:00
9:53 PM,19.9,9.0,62,30.17,10.0,West,8.1,-,N/A,,Clear,280,2013-01-23 04:53:00
10:53 PM,17.1,8.1,68,30.16,10.0,West,4.6,-,N/A,,Clear,260,2013-01-23 05:53:00
11:53 PM,15.1,8.1,74,30.15,10.0,West,5.8,-,N/A,,Clear,260,2013-01-23 06:53:00